Weather in Korma

Belarus     53°07′43″N   30°48′15″E
temp.,
°C
wind,
m/s
gust,
m/s
humid.,
%
clouds,
%
prec.,
mm/h
press.,
hPa
HPBL,
m
21 april, wed
wed2100:00+5ne3594100 0.5 1010697
03:00+5nne2395100 0.8 1009660
06:00+4nne2391100 0.1 1009311
09:00+5nne0288100 0.1 1010518
12:00+7ssw2481100 0.1 1010656
15:00+9w4564100 0.3 10101134
18:00+9wsw346999 0.2 1010384
21:00+7s3481100 0.4 101169
22 april, thu
thu2200:00+6s389198 0.0 1011167
03:00+5ssw389411 0.4 1011153
06:00+5s379497 0.0 1011142
09:00+10s577946 0.1 1012408
12:00+14ssw79605 1.2 10111391
15:00+16wsw8104255 1.9 10112405
18:00+14ssw610627 0.3 1011751
21:00+10sw5109296 4.1 1012574
23 april, fri
fri2300:00+8sw51192100 1.3 1012610
03:00+6w5881100 1.6 1014812
06:00+6ssw3783100 0.1 1014376
09:00+6wsw4667100 0.1 1015644
12:00+7wsw4558100 0.0 10151345
15:00+9wsw4549100 0.0 10141759
18:00+8wsw4557100 0.1 10141091
21:00+5wsw367497 0.4 1014166
24 april, sat
sat2400:00+3w38815 0.0 1013153
03:00+1wsw49850 0.0 1013206
06:000w49957 0.0 1013295
09:00+3w5778100 0.1 1013895
12:00+4w6767100 0.7 10131283
15:00+6w7963100 1.5 10131453
18:00+6wnw6868100 0.8 10131273
21:00+3w388590 0.9 1014205
25 april, sun
sun2500:00+1wsw499084 0.0 1013208
03:000wsw38935 0.0 1013172
06:00−1wsw389394 0.0 1013209
09:00+3wsw69625 0.0 10131045
12:00+4wsw81072100 0.2 10121171
15:00+3wsw81193100 1.9 1012970
18:00+5w71174100 0.7 10121353
21:00+1sw498610 0.7 1013192